Precipitable_Water
1.24 1.23 1.22 1.23 1.24 1.26 1.26 1.27 1.31 1.31 1.35 1.35 1.31 1.30 1.30 1.32 1.38 1.41 1.43 1.48 1.47 1.47 1.55 1.55 1.54 1.56 1.56 1.54 1.55 1.54 1.51 1.49 1.48 1.45 1.38 1.36 1.32 1.24 1.21 1.23 1.26 1.24
1.26 1.26 1.25 1.23 1.21 1.23 1.25 1.27 1.29 1.32 1.34 1.37 1.38 1.39 1.40 1.38 1.39 1.41 1.42 1.44 1.48 1.48 1.54 1.55 1.51 1.53 1.55 1.55 1.55 1.51 1.49 1.49 1.45 1.46 1.35 1.33 1.29 1.27 1.25 1.25 1.26 1.28
1.24 1.24 1.23 1.22 1.21 1.22 1.24 1.25 1.26 1.29 1.31 1.36 1.44 1.44 1.39 1.43 1.41 1.42 1.44 1.45 1.44 1.46 1.53 1.51 1.48 1.50 1.53 1.53 1.55 1.52 1.49 1.45 1.40 1.43 1.36 1.32 1.34 1.30 1.30 1.30 1.28 1.27
1.20 1.22 1.21 1.21 1.23 1.24 1.29 1.28 1.26 1.28 1.32 1.31 1.29 1.36 1.47 1.49 1.44 1.39 1.40 1.40 1.41 1.44 1.48 1.47 1.47 1.50 1.53 1.54 1.55 1.52 1.48 1.44 1.43 1.45 1.41 1.39 1.38 1.36 1.31 1.30 1.28 1.29
1.17 1.19 1.20 1.21 1.23 1.27 1.31 1.31 1.30 1.29 1.30 1.32 1.34 1.34 1.38 1.46 1.40 1.38 1.39 1.40 1.42 1.42 1.42 1.40 1.46 1.51 1.54 1.52 1.53 1.49 1.48 1.45 1.45 1.44 1.41 1.38 1.39 1.38 1.32 1.29 1.26 1.24
1.15 1.17 1.20 1.20 1.23 1.26 1.30 1.31 1.32 1.33 1.32 1.31 1.34 1.37 1.36 1.42 1.41 1.39 1.44 1.39 1.44 1.44 1.42 1.44 1.49 1.50 1.51 1.50 1.52 1.49 1.46 1.43 1.44 1.42 1.39 1.35 1.34 1.36 1.32 1.29 1.28 1.24
1.11 1.15 1.17 1.21 1.22 1.27 1.30 1.32 1.35 1.36 1.34 1.34 1.37 1.35 1.37 1.34 1.36 1.39 1.43 1.42 1.43 1.43 1.40 1.39 1.42 1.45 1.47 1.49 1.49 1.45 1.44 1.41 1.42 1.42 1.37 1.30 1.32 1.34 1.36 1.33 1.28 1.26
1.08 1.14 1.17 1.19 1.20 1.23 1.26 1.30 1.32 1.34 1.35 1.34 1.31 1.31 1.30 1.32 1.32 1.32 1.41 1.46 1.43 1.39 1.38 1.38 1.41 1.42 1.44 1.47 1.44 1.36 1.36 1.39 1.35 1.34 1.32 1.27 1.27 1.24 1.32 1.29 1.27 1.24
1.02 1.07 1.12 1.15 1.15 1.19 1.22 1.27 1.30 1.33 1.37 1.34 1.32 1.26 1.27 1.32 1.35 1.36 1.35 1.38 1.37 1.36 1.40 1.41 1.41 1.41 1.44 1.44 1.40 1.35 1.30 1.33 1.36 1.34 1.29 1.28 1.28 1.27 1.29 1.29 1.28 1.28
0.89 0.98 1.04 1.08 1.10 1.15 1.20 1.27 1.30 1.33 1.35 1.32 1.31 1.30 1.26 1.30 1.32 1.32 1.35 1.36 1.31 1.32 1.36 1.40 1.40 1.41 1.43 1.44 1.38 1.37 1.36 1.30 1.35 1.36 1.31 1.30 1.29 1.29 1.28 1.28 1.28 1.25
0.79 0.85 0.92 1.00 1.05 1.10 1.15 1.22 1.27 1.31 1.34 1.32 1.28 1.25 1.26 1.29 1.32 1.33 1.30 1.30 1.29 1.33 1.36 1.36 1.37 1.40 1.40 1.39 1.40 1.40 1.35 1.32 1.34 1.33 1.32 1.32 1.32 1.29 1.27 1.25 1.24 1.21
0.72 0.75 0.80 0.87 0.97 1.05 1.11 1.15 1.20 1.26 1.30 1.32 1.33 1.29 1.29 1.30 1.31 1.31 1.28 1.29 1.29 1.28 1.30 1.35 1.35 1.35 1.36 1.37 1.40 1.45 1.40 1.35 1.35 1.37 1.35 1.33 1.30 1.30 1.29 1.28 1.25 1.23
0.70 0.71 0.73 0.78 0.86 0.96 1.06 1.11 1.15 1.19 1.24 1.26 1.28 1.27 1.27 1.28 1.32 1.31 1.31 1.31 1.33 1.35 1.37 1.38 1.37 1.36 1.37 1.38 1.39 1.36 1.35 1.35 1.32 1.33 1.33 1.31 1.31 1.32 1.33 1.33 1.32 1.31
0.69 0.70 0.71 0.74 0.78 0.85 0.97 1.06 1.10 1.13 1.16 1.22 1.26 1.26 1.25 1.26 1.28 1.31 1.33 1.33 1.33 1.32 1.33 1.36 1.35 1.33 1.34 1.37 1.37 1.37 1.35 1.32 1.30 1.27 1.25 1.25 1.27 1.33 1.36 1.34 1.32 1.29
0.69 0.69 0.69 0.71 0.73 0.77 0.83 0.96 1.05 1.09 1.12 1.16 1.21 1.24 1.27 1.29 1.32 1.32 1.33 1.33 1.35 1.33 1.32 1.34 1.33 1.32 1.34 1.34 1.33 1.31 1.30 1.28 1.26 1.23 1.20 1.18 1.21 1.26 1.30 1.32 1.27 1.24
0.69 0.68 0.67 0.68 0.69 0.72 0.76 0.83 0.95 1.07 1.12 1.13 1.17 1.21 1.25 1.30 1.32 1.33 1.33 1.33 1.31 1.30 1.30 1.31 1.30 1.31 1.30 1.32 1.32 1.28 1.25 1.21 1.20 1.18 1.14 1.12 1.12 1.14 1.18 1.23 1.25 1.24
0.70 0.69 0.68 0.66 0.67 0.70 0.73 0.77 0.83 0.97 1.08 1.15 1.18 1.19 1.21 1.26 1.31 1.31 1.32 1.34 1.32 1.28 1.26 1.26 1.28 1.30 1.29 1.27 1.27 1.28 1.25 1.19 1.14 1.11 1.09 1.08 1.07 1.07 1.11 1.16 1.21 1.22
0.70 0.69 0.68 0.66 0.66 0.67 0.72 0.76 0.80 0.87 0.99 1.10 1.17 1.20 1.20 1.24 1.27 1.30 1.32 1.33 1.33 1.31 1.27 1.26 1.27 1.29 1.28 1.27 1.26 1.26 1.24 1.18 1.14 1.09 1.06 1.06 1.07 1.07 1.09 1.11 1.11 1.13
0.71 0.69 0.68 0.66 0.66 0.68 0.71 0.75 0.78 0.82 0.90 0.99 1.08 1.19 1.22 1.19 1.23 1.29 1.30 1.31 1.32 1.28 1.24 1.25 1.25 1.26 1.24 1.23 1.24 1.25 1.23 1.16 1.11 1.10 1.06 1.05 1.06 1.08 1.09 1.12 1.14 1.13
0.70 0.70 0.69 0.68 0.68 0.68 0.70 0.74 0.77 0.79 0.86 0.95 1.04 1.12 1.19 1.21 1.20 1.26 1.30 1.27 1.27 1.25 1.22 1.21 1.21 1.22 1.22 1.22 1.23 1.22 1.19 1.14 1.09 1.08 1.06 1.05 1.06 1.08 1.10 1.14 1.17 1.16
0.68 0.69 0.69 0.70 0.69 0.68 0.68 0.71 0.75 0.79 0.83 0.90 0.96 1.01 1.07 1.14 1.22 1.22 1.26 1.26 1.26 1.26 1.22 1.17 1.16 1.20 1.23 1.25 1.23 1.20 1.16 1.11 1.08 1.08 1.06 1.04 1.06 1.09 1.11 1.12 1.14 1.16
0.67 0.67 0.68 0.70 0.69 0.68 0.67 0.68 0.73 0.77 0.81 0.87 0.92 0.97 1.03 1.09 1.12 1.15 1.18 1.18 1.18 1.20 1.17 1.18 1.18 1.19 1.21 1.23 1.21 1.18 1.15 1.09 1.08 1.07 1.03 1.02 1.03 1.05 1.07 1.10 1.15 1.18
0.67 0.67 0.67 0.68 0.70 0.69 0.67 0.67 0.69 0.75 0.79 0.84 0.87 0.91 0.95 1.00 1.03 1.07 1.12 1.14 1.16 1.18 1.19 1.16 1.17 1.18 1.18 1.18 1.16 1.14 1.12 1.07 1.06 1.04 1.01 0.99 1.00 1.02 1.04 1.06 1.11 1.16
0.65 0.67 0.67 0.68 0.69 0.69 0.68 0.69 0.70 0.72 0.77 0.82 0.83 0.86 0.89 0.94 0.97 1.00 1.05 1.11 1.13 1.15 1.16 1.16 1.16 1.16 1.20 1.19 1.17 1.13 1.10 1.06 1.05 1.02 0.99 0.98 1.00 1.02 1.04 1.05 1.07 1.08
0.64 0.66 0.67 0.68 0.68 0.70 0.71 0.70 0.70 0.71 0.73 0.78 0.81 0.84 0.87 0.90 0.94 0.94 0.96 1.02 1.07 1.10 1.12 1.12 1.14 1.18 1.19 1.18 1.18 1.14 1.10 1.08 1.06 1.02 0.98 0.98 1.00 1.01 1.03 1.04 1.05 1.07
0.64 0.64 0.65 0.67 0.68 0.69 0.71 0.72 0.73 0.73 0.73 0.72 0.75 0.80 0.83 0.86 0.90 0.92 0.95 0.96 1.00 1.05 1.09 1.10 1.11 1.13 1.16 1.13 1.15 1.12 1.09 1.09 1.09 1.04 0.98 0.98 1.00 1.00 0.99 1.00 1.02 1.04
Wind_Speed
25 24 25 26 26 26 26 26 25 25 25 24 24 23 23 23 24 23 23 23 24 25 25 25 25 26 27 27 26 26 25 24 25 25 24 24 23 22 22 21 21 21
24 24 24 25 25 26 26 25 25 25 25 24 23 23 23 23 23 23 23 23 23 25 25 24 24 25 26 26 26 26 25 25 25 25 25 24 23 23 23 22 22 21
22 23 23 24 25 25 26 26 25 25 25 25 24 23 22 22 22 22 22 22 23 23 25 24 23 24 25 25 25 25 25 25 25 25 25 25 24 23 23 22 22 22
21 21 22 22 23 24 24 25 25 25 25 25 24 23 22 22 22 22 22 22 21 22 24 24 24 24 24 25 25 25 25 24 25 25 25 24 24 23 23 23 22 22
20 20 20 21 22 22 22 23 24 24 24 24 23 22 21 21 21 21 21 22 21 21 23 24 25 25 24 24 25 25 25 25 25 25 25 24 24 23 23 23 22 22
19 19 19 20 20 21 20 20 21 22 22 22 22 21 21 20 20 20 21 21 22 22 22 23 24 25 24 24 25 25 25 25 25 25 25 24 24 24 24 23 23 22
19 19 19 19 19 19 18 18 18 19 20 20 20 20 20 20 19 19 20 21 22 22 22 23 24 24 24 24 25 25 25 25 25 25 25 24 24 24 24 24 23 23
18 19 19 18 17 17 17 17 17 18 18 19 19 20 20 20 19 19 19 20 21 22 22 23 24 24 24 24 25 25 25 25 25 26 26 24 23 24 24 23 23 22
18 18 18 18 17 17 16 16 17 18 19 20 20 20 20 19 19 18 19 20 21 22 23 24 24 25 24 24 24 25 25 25 25 26 25 24 24 24 24 23 22 22
18 18 18 18 17 17 17 16 16 17 19 20 21 21 20 20 19 19 19 20 21 22 23 24 24 25 25 24 25 25 25 25 25 25 25 25 24 24 23 23 23 22
17 18 18 18 18 18 18 17 16 16 18 19 20 20 20 20 20 20 20 21 22 23 23 24 24 25 25 25 25 25 25 25 25 25 25 25 24 24 23 23 22 22
17 17 17 18 18 18 18 18 17 17 17 18 19 20 20 21 21 21 22 22 22 23 24 24 24 24 25 25 25 25 25 25 24 24 24 24 24 24 23 23 23 23
18 18 18 18 18 18 18 18 18 18 18 18 18 19 20 20 21 22 23 23 23 23 24 24 24 25 25 25 25 25 25 25 24 24 24 24 24 23 23 23 23 23
19 19 19 18 18 18 18 18 18 18 18 18 18 18 18 19 20 21 23 23 24 24 24 24 25 25 25 25 25 24 24 24 24 24 24 24 23 23 23 23 23 23
19 19 19 19 19 19 18 18 18 18 19 19 19 19 19 19 19 20 22 23 23 24 25 25 25 25 26 26 25 24 24 24 24 24 24 24 24 24 23 23 23 23
20 20 20 20 20 19 19 19 19 19 19 19 19 19 19 19 19 20 21 22 23 24 25 26 25 26 26 27 26 25 25 24 24 24 24 24 23 23 24 23 23 23
21 21 21 21 20 20 19 19 19 19 19 20 20 20 20 19 20 20 21 22 23 24 25 26 26 26 26 27 27 26 26 25 25 25 24 23 23 23 23 23 23 23
21 21 21 21 21 20 20 19 19 18 19 19 20 21 20 20 19 20 20 22 22 23 24 25 26 26 27 27 27 27 27 26 25 25 25 24 23 23 23 23 23 23
21 21 21 21 21 20 19 19 19 18 18 18 19 20 21 20 20 19 20 21 22 23 23 24 25 26 27 27 27 28 27 26 26 26 25 24 24 24 24 23 23 23
21 21 21 21 20 20 19 19 18 17 17 18 18 19 20 20 20 20 20 21 22 23 23 24 24 25 26 26 26 27 27 26 26 26 25 25 25 25 24 24 24 24
20 20 20 20 20 20 19 18 18 17 16 17 17 18 18 19 20 20 21 21 22 23 23 24 24 25 26 26 26 26 27 26 26 26 26 26 25 25 25 24 24 24
20 20 20 19 19 19 19 19 18 16 15 15 16 17 18 18 19 20 20 21 22 22 23 24 24 25 26 27 27 28 28 27 27 26 26 26 26 25 24 24 24 25
18 19 19 19 19 19 19 18 18 17 15 14 14 15 16 17 18 19 20 21 22 23 24 24 25 25 26 28 28 29 29 28 28 27 27 26 26 25 25 24 24 24
18 18 18 18 18 18 18 18 17 17 16 14 13 13 14 16 17 18 19 20 22 23 24 25 25 25 25 27 28 29 29 29 29 28 27 27 26 26 25 25 25 24
17 18 18 18 17 17 17 17 16 16 15 14 13 12 13 15 16 17 17 19 20 22 23 24 25 25 25 26 27 29 29 29 29 29 28 27 27 26 25 25 25 25
17 18 18 18 17 17 16 16 15 15 14 13 12 12 12 13 14 15 16 17 19 20 22 23 24 25 26 26 27 29 29 29 30 30 29 28 27 26 25 25 25 25
Wind_Direction
282 279 278 276 275 275 274 272 268 262 260 260 259 258 257 256 256 255 252 249 245 242 240 237 234 230 226 223 222 223 223 225 224 224 224 225 225 224 223 222 223 224
283 281 279 278 275 274 272 270 267 262 259 258 258 258 258 256 254 253 252 250 247 243 237 234 233 230 225 222 222 222 223 225 224 223 223 223 225 225 224 223 223 225
285 283 282 280 278 275 271 268 266 262 259 257 256 257 257 255 253 251 251 250 247 241 233 231 232 227 222 221 222 223 224 224 223 223 223 224 224 226 225 224 225 226
288 287 286 285 283 278 272 267 264 262 258 255 254 254 255 254 252 250 250 248 245 237 230 230 230 225 221 221 222 224 224 223 222 222 223 224 224 225 225 225 226 227
291 290 290 291 289 284 275 267 263 259 255 252 250 251 253 253 252 251 249 245 240 235 231 229 226 223 222 222 223 224 224 223 222 221 223 224 224 225 226 226 227 227
293 293 293 294 294 290 280 270 264 258 253 250 248 247 250 253 253 251 248 242 237 234 231 228 224 222 222 223 223 224 224 223 223 222 223 224 224 225 226 226 226 226
294 294 294 295 296 294 284 272 264 258 253 250 247 246 248 250 251 251 247 239 234 232 229 226 224 223 224 224 224 224 224 223 222 221 222 224 224 224 224 225 226 226
295 294 293 294 294 293 287 275 264 258 255 252 248 248 250 249 250 249 243 236 232 231 229 226 225 225 225 224 224 224 224 223 221 220 221 223 223 222 223 225 225 226
298 295 293 292 292 291 288 279 268 261 257 254 250 250 251 249 248 246 239 234 233 231 229 228 227 227 226 224 225 225 224 224 222 221 222 223 223 223 224 225 225 226
302 298 295 292 290 289 287 282 274 266 259 255 252 251 250 248 247 244 239 236 234 231 229 229 229 228 226 225 226 225 225 224 224 224 224 224 223 224 225 226 226 227
309 304 299 295 291 287 285 281 276 269 262 256 253 251 250 249 248 244 239 237 234 232 231 231 231 229 226 225 225 225 225 225 224 224 224 224 224 225 225 226 227 228
314 311 305 299 294 289 285 280 274 269 262 256 254 253 252 252 250 245 240 237 234 232 232 232 231 228 226 225 225 224 224 224 224 223 223 223 225 226 226 227 228 229
316 314 310 304 298 292 287 281 274 268 262 257 255 255 254 253 250 245 241 237 234 232 231 231 229 227 225 225 225 224 224 224 224 224 224 226 227 227 228 229 229 230
316 315 313 309 302 296 289 283 276 269 263 259 256 256 256 255 251 246 242 238 235 232 230 230 229 226 225 225 226 225 224 224 224 225 227 228 228 228 229 230 230 231
316 316 315 312 307 300 293 285 278 271 265 261 257 256 257 257 254 248 243 238 235 232 230 229 229 227 225 224 225 225 224 224 225 227 228 229 229 229 230 231 231 233
317 318 318 316 311 304 297 289 281 274 267 263 258 256 257 257 255 250 243 238 234 232 230 230 230 229 227 226 226 226 225 225 226 228 228 229 229 230 231 231 232 234
317 319 320 320 317 310 303 295 287 278 271 265 260 257 256 257 255 250 243 237 235 233 231 230 230 229 227 227 227 227 226 226 228 228 228 229 229 230 230 231 232 233
318 319 321 323 321 316 309 302 294 284 277 271 264 258 255 255 255 250 243 237 235 233 232 232 230 228 227 226 226 226 227 228 229 229 229 229 229 230 230 231 232 232
320 321 322 323 324 321 314 307 300 291 282 276 270 263 256 253 253 250 244 238 235 234 233 233 230 228 228 227 226 226 226 227 229 229 230 230 230 231 231 231 231 231
321 322 323 324 324 323 319 312 306 298 288 280 274 268 261 255 252 250 245 240 237 236 235 234 231 229 228 226 225 224 225 226 228 228 229 230 230 231 231 231 231 232
321 322 323 324 324 324 322 317 311 306 297 286 277 271 265 259 254 250 246 242 240 238 236 234 231 230 228 226 224 224 224 226 227 228 229 229 230 231 232 232 233 233
320 322 323 324 324 325 325 321 317 313 306 294 282 273 267 261 257 252 248 244 242 240 237 235 233 231 229 227 226 225 225 226 227 228 229 230 231 232 233 234 234 235
320 322 324 325 325 326 327 326 323 319 315 304 289 278 269 263 259 255 250 246 244 242 239 237 235 234 231 230 229 227 226 227 228 228 230 231 231 233 234 235 235 236
321 322 324 325 326 326 326 326 325 324 321 313 300 287 275 266 261 257 253 248 245 244 242 239 237 237 234 232 231 230 228 227 228 229 229 231 231 233 234 234 235 236
321 321 322 322 324 324 324 324 325 325 322 317 307 295 282 270 263 260 258 253 248 245 243 241 239 237 236 234 233 232 230 229 229 229 229 230 231 231 232 234 235 236
318 320 320 320 320 320 320 321 323 324 324 321 312 299 289 279 269 261 259 257 253 247 243 241 239 237 237 236 235 234 232 231 230 229 229 229 229 230 232 233 234 235